STARLINK-4776 (53837 NORAD) Tracking and Keplerian Element Data

This shows tracking and keplerian element data for the satellite.

Feedback or suggestion? Click here.




ElementValue
Catalog53837
NameSTARLINK-4776
Epoch Orbit1047
Epoch Day325.33334491
Epoch Year2022
RAAN310.4905
Inclination53.2174
Eccentricity0.0001757
Argument of Perigee44.6636
Mean Anonmoly82.3383
Mean Motion15.17250629
Decay Rate-0.0116009
L11 53837U 22114V 22325.33334491 -.01160090 00000+0 -62535-1 0 9990
L22 53837 53.2174 310.4905 0001757 44.6636 82.3383 15.17250629 10478



Live tracking and technical data element details for STARLINK-4776 (NORAD 53837). STARLINK-4776 can be tracked NOW for your location showing map with azimuth and elevation plus other details from your city location.







IsCatalogInMostPopularTable: catalog: 53837, numindb: -1

Insert: records affected: 1


GetName: 53837 STARLINK-4776

Hit Count: inserted at: Thu, 08 Dec 2022 10:29:23 GMT